Kaami — C6VO9 — position and weather

sailwx.info

Track history (hours):
 
Tides and Currents Weather Stations Pressure Air Temp Water Temp Dewpoint Dewpoint Depression Visibility Wind Speed Wind Dir Waves Ship Positions

Kaami

Last reported at 2014-Nov-01 08:33 UTC. Time now 2014-Nov-01 09:10 UTC.
Position N 58°12' E 006°11'.

Length 90 m; draft 5.3 m.

Type: Cargo ship. MMSI: 308542000.

Date/timePositionNaut miles runAvg speedWind from/ knotsBaromVisibWave heightAir tempDewpointWater temp
2014-Nov-01 08:33N 58°12' E 006°11'7 7.5
2014-Nov-01 07:33N 58°17' E 006°01'7 7.1
2014-Nov-01 06:33N 58°22' E 005°51'7 6.7
2014-Nov-01 05:33N 58°27' E 005°42'6 6.4
2014-Nov-01 04:33N 58°32' E 005°34'14 6.1
2014-Nov-01 02:12N 58°44' E 005°22'4 6.2
2014-Nov-01 01:32N 58°48' E 005°21'7 7.6
2014-Nov-01 00:33N 58°56' E 005°19'8 8.0
2014-Oct-31 23:33N 59°04' E 005°19'9 8.8
2014-Oct-31 22:33N 59°13' E 005°20'5 0.2
2014-Oct-30 17:34N 59°17' E 005°19'7 7.0
2014-Oct-30 16:34N 59°10' E 005°21'9 8.9
2014-Oct-30 15:33N 59°03' E 005°12'1010.2
2014-Oct-30 14:33N 59°10' E 004°57'10 9.6
2014-Oct-30 13:32N 59°18' E 004°47'  
2014-Oct-24 21:03N 59°13' E 004°52'4 8.9
2014-Oct-24 20:33N 59°09' E 004°57'7 7.3
2014-Oct-24 19:33N 59°06' E 005°10'7 7.0
2014-Oct-24 18:33N 59°08' E 005°23'9 9.3
2014-Oct-24 17:34N 59°02' E 005°37'6 6.4
2014-Oct-24 16:33N 58°59' E 005°47'2 2.1
2014-Oct-24 15:33N 58°57' E 005°45'0 0.0
2014-Oct-24 14:33N 58°57' E 005°45'0 0.0
2014-Oct-24 13:33N 58°57' E 005°45'0 0.0
2014-Oct-24 12:33N 58°57' E 005°45'0 0.0
2014-Oct-24 11:33N 58°57' E 005°45'0 0.0
2014-Oct-24 10:33N 58°57' E 005°45'0 0.0
2014-Oct-24 09:33N 58°57' E 005°45'0 0.0
2014-Oct-24 08:33N 58°57' E 005°45'0 0.0
2014-Oct-24 07:33N 58°57' E 005°45'0 0.0
2014-Oct-24 06:33N 58°57' E 005°45'0 0.0
2014-Oct-24 05:33N 58°57' E 005°45'0 0.0
2014-Oct-24 04:33N 58°57' E 005°45'0 0.0
2014-Oct-24 03:33N 58°57' E 005°45'0 0.0
2014-Oct-24 02:33N 58°57' E 005°45'0 0.0
2014-Oct-24 01:33N 58°57' E 005°45'0 0.0
2014-Oct-24 00:33N 58°57' E 005°45'0 0.0
2014-Oct-23 23:33N 58°57' E 005°45'0 0.0
2014-Oct-23 22:33N 58°57' E 005°45'0 0.0
2014-Oct-23 21:33N 58°57' E 005°45'0 0.0
2014-Oct-23 20:33N 58°57' E 005°45'0 0.0
2014-Oct-23 19:33N 58°57' E 005°45'0 0.0
2014-Oct-23 18:33N 58°57' E 005°45'0 0.2
2014-Oct-23 17:33N 58°57' E 005°46'5 5.1
2014-Oct-23 16:33N 59°02' E 005°43'6 5.6
2014-Oct-23 15:33N 58°60' E 005°33'9 8.6
2014-Oct-23 14:33N 58°51' E 005°31'20 7.9
2014-Oct-23 12:06N 58°32' E 005°25'5 8.1
2014-Oct-23 11:26N 58°27' E 005°26'17 8.6
2014-Oct-23 09:28N 58°10' E 005°27'9 9.7
2014-Oct-23 08:33N 58°01' E 005°27'  
Track history (hours):
 
Tides and Currents Weather Stations Pressure Air Temp Water Temp Dewpoint Dewpoint Depression Visibility Wind Speed Wind Dir Waves Ship Positions

Kaami

Last reported at 2014-Nov-01 08:33 UTC. Time now 2014-Nov-01 09:10 UTC.
Position N 58°12' E 006°11'.

Length 90 m; draft 5.3 m.

Type: Cargo ship. MMSI: 308542000.

Date/timePositionNaut miles runAvg speedWind from/ knotsBaromVisibWave heightAir tempDewpointWater temp
2014-Nov-01 08:33N 58°12' E 006°11'7 7.5
2014-Nov-01 07:33N 58°17' E 006°01'7 7.1
2014-Nov-01 06:33N 58°22' E 005°51'7 6.7
2014-Nov-01 05:33N 58°27' E 005°42'6 6.4
2014-Nov-01 04:33N 58°32' E 005°34'14 6.1
2014-Nov-01 02:12N 58°44' E 005°22'4 6.2
2014-Nov-01 01:32N 58°48' E 005°21'7 7.6
2014-Nov-01 00:33N 58°56' E 005°19'8 8.0
2014-Oct-31 23:33N 59°04' E 005°19'9 8.8
2014-Oct-31 22:33N 59°13' E 005°20'5 0.2
2014-Oct-30 17:34N 59°17' E 005°19'7 7.0
2014-Oct-30 16:34N 59°10' E 005°21'9 8.9
2014-Oct-30 15:33N 59°03' E 005°12'1010.2
2014-Oct-30 14:33N 59°10' E 004°57'10 9.6
2014-Oct-30 13:32N 59°18' E 004°47'  
2014-Oct-24 21:03N 59°13' E 004°52'4 8.9
2014-Oct-24 20:33N 59°09' E 004°57'7 7.3
2014-Oct-24 19:33N 59°06' E 005°10'7 7.0
2014-Oct-24 18:33N 59°08' E 005°23'9 9.3
2014-Oct-24 17:34N 59°02' E 005°37'6 6.4
2014-Oct-24 16:33N 58°59' E 005°47'2 2.1
2014-Oct-24 15:33N 58°57' E 005°45'0 0.0
2014-Oct-24 14:33N 58°57' E 005°45'0 0.0
2014-Oct-24 13:33N 58°57' E 005°45'0 0.0
2014-Oct-24 12:33N 58°57' E 005°45'0 0.0
2014-Oct-24 11:33N 58°57' E 005°45'0 0.0
2014-Oct-24 10:33N 58°57' E 005°45'0 0.0
2014-Oct-24 09:33N 58°57' E 005°45'0 0.0
2014-Oct-24 08:33N 58°57' E 005°45'0 0.0
2014-Oct-24 07:33N 58°57' E 005°45'0 0.0
2014-Oct-24 06:33N 58°57' E 005°45'0 0.0
2014-Oct-24 05:33N 58°57' E 005°45'0 0.0
2014-Oct-24 04:33N 58°57' E 005°45'0 0.0
2014-Oct-24 03:33N 58°57' E 005°45'0 0.0
2014-Oct-24 02:33N 58°57' E 005°45'0 0.0
2014-Oct-24 01:33N 58°57' E 005°45'0 0.0
2014-Oct-24 00:33N 58°57' E 005°45'0 0.0
2014-Oct-23 23:33N 58°57' E 005°45'0 0.0
2014-Oct-23 22:33N 58°57' E 005°45'0 0.0
2014-Oct-23 21:33N 58°57' E 005°45'0 0.0
2014-Oct-23 20:33N 58°57' E 005°45'0 0.0
2014-Oct-23 19:33N 58°57' E 005°45'0 0.0
2014-Oct-23 18:33N 58°57' E 005°45'0 0.2
2014-Oct-23 17:33N 58°57' E 005°46'5 5.1
2014-Oct-23 16:33N 59°02' E 005°43'6 5.6
2014-Oct-23 15:33N 58°60' E 005°33'9 8.6
2014-Oct-23 14:33N 58°51' E 005°31'20 7.9
2014-Oct-23 12:06N 58°32' E 005°25'5 8.1
2014-Oct-23 11:26N 58°27' E 005°26'17 8.6
2014-Oct-23 09:28N 58°10' E 005°27'9 9.7
2014-Oct-23 08:33N 58°01' E 005°27'  

Dump ship's entire track history